www.pogodaiklimat.ru

Погода и климат >> Архив погоды >> Украина >> Купянск


ПОГОДА в Купянске

  • Прогноз погоды в Купянске
  • Монитор погоды в Купянске

АРХИВ ПОГОДЫ в Купянске

Время (UTC), дата Ветер
(напр.,м/с)
 
Видим.   Явления Облачность Т
(С)
Тd
(С)
f
(%)
Тe
(С)
Тes
(С)
Комфортность P
(гПа)
Po
(гПа)
Тmin
(С)
Tmax
(С)
R
(мм)
R24
(мм)
S
(см)
00 13.06 С 2 10 км 3/0
[Ac lent Ci fib]
+22.0 +14.1 61 +25 +25 комфорт 1013.6 1004.0
03 13.06 С 2 50 км 8/0
[Ac cast Cc]
+21.3 +16.0 72 +25 +26 комфорт 1014.2 1004.6
06 13.06 С 3 50 км 3/0
[Ac lent]
+28.0 +17.2 52 +32 +38 душно 1014.4 1005.0 +20.0
09 13.06 С 4 50 км 1/0
[Cs]
+32.6 +16.0 37 +35 +47 душно 1014.9 1005.6
12 13.06 СВ 4 50 км 5/5
[Cu hum]
+32.3 +15.8 37 +35 +39 очень
душно
1015.1 1005.8
15 13.06 СВ 4 50 км 4/4 1000 м
[Cu hum Ac lent Cs]
+30.6 +14.5 38 +33 +34 душно 1015.6 1006.2
18 13.06 СВ 2 20 км 3/0
[Ac lent Cs]
+25.2 +15.6 55 +28 +28 жарко 1017.6 1008.1 +32.6
21 13.06 С 2 10 км ясно +21.6 +15.4 68 +25 +25 комфорт 1019.3 1009.6
00 14.06 С 2 10 км ясно +19.0 +13.3 70 +21 +21 комфорт 1020.4 1010.6
03 14.06 СВ 2 50 км ясно +17.0 +11.4 70 +17 +19 1020.7 1010.8
06 14.06 В 2 50 км ясно +22.2 +7.5 39 +23 +33 комфорт 1021.0 1011.3 +16.0
09 14.06 В 2 50 км ясно +26.6 +10.5 36 +27 +45 жарко 1020.3 1010.8
12 14.06 СВ 2 50 км ясно +29.0 +8.9 28 +29 +42 жарко 1018.9 1009.4
15 14.06 СВ 1 50 км ясно +29.0 +10.2 31 +29 +33 жарко 1017.6 1008.2
18 14.06 СВ 1 20 км ясно +24.6 +16.6 61 +28 +28 душно 1016.9 1007.3 +29.5
21 14.06 штиль 0 10 км ясно +17.0 +10.4 65 +17 +17 1017.9 1008.1
00 15.06 ЮВ 1 10 км ясно +15.2 +10.6 74 +16 +16 1016.5 1006.6
03 15.06 ЮЗ 1 20 км 8/0
[Ci]
+14.3 +10.7 79 +15 +16 1016.3 1006.4
06 15.06 штиль 0 50 км ясно +25.9 +14.7 50 +28 +42 жарко 1015.3 1005.8 +14.3
09 15.06 З 2 50 км ясно +29.7 +14.6 40 +32 +50 душно 1014.3 1004.9
12 15.06 ЮЗ 2 50 км ясно +32.2 +22.1 55 +41 +54 опасность
перегрева
1011.5 1002.3
15 15.06 С 2 50 км ясно +32.7 +22.5 55 +42 +45 опасность
перегрева
1011.4 1002.2
18 15.06 С 1 20 км 5/5 600 м
[Cu Sc]
+22.2 +14.7 62 +26 +26 душно 1012.8 1003.2 +32.7
21 15.06 С 2 10 км 3/0
[Cs]
+20.6 +14.4 68 +24 +24 комфорт 1011.9 1002.3
00 16.06 ЮВ 1 10 км ясно +18.4 +14.2 77 +20 +20 1011.7 1002.0
03 16.06 СЗ 1 20 км 3/0
[]
+18.0 +14.7 81 +19 +20 1011.5 1001.8
06 16.06 ЮЗ 1 50 км 3/0
[Ac As]
+24.9 +15.1 54 +28 +37 жарко 1010.6 1001.1 +16.8
09 16.06 СЗ 2 50 км 6/6 600 м
[Cu med, cong]
+28.9 +17.4 50 +33 +40 очень
душно
1010.3 1000.9
12 16.06 С 3 50 км 8/8 600 м
[Cu med, cong]
+29.4 +17.6 49 +34 +36 очень
душно
1009.5 1000.2
15 16.06 С 3 50 км 8/8 600 м
[Cu med, cong]
+28.4 +17.3 51 +32 +33 душно 1010.3 1000.9
18 16.06 С 2 20 км ясно +22.4 +16.7 70 +27 +27 душно 1011.9 1002.3 +29.4
21 16.06 С 2 10 км ясно +19.4 +14.0 71 +22 +22 комфорт 1013.4 1003.7
00 17.06 С 1 10 км ясно +16.5 +11.9 74 +17 +17 1014.6 1004.8
03 17.06 С 1 20 км ясно +19.2 +14.7 75 +22 +23 комфорт 1014.7 1005.0
06 17.06 СВ 2 50 км ясно +23.4 +13.0 52 +26 +36 жарко 1015.7 1006.1 +16.5
09 17.06 С 3 50 км 8/8 600 м
[Cu hum]
+27.3 +11.4 37 +28 +31 жарко 1015.4 1005.9
12 17.06 СЗ 2 50 км 8/8 600 м
[Cu hum]
+28.6 +11.1 34 +29 +32 жарко 1014.4 1005.0
15 17.06 СЗ 2 50 км 4/4 600 м
[Cu hum]
+29.0 +10.8 32 +29 +31 жарко 1013.7 1004.3
18 17.06 С 1 20 км 3/3 600 м
[Sc diur, vesp]
+24.6 +15.1 55 +27 +27 жарко 1014.4 1004.9 +29.2
21 17.06 штиль 0 10 км ясно +18.8 +12.3 66 +20 +20 1014.9 1005.2
00 18.06 штиль 0 10 км ясно +16.2 +12.2 77 +16 +16 1015.3 1005.5
03 18.06 СЗ 1 20 км 3/0
[Ci sp]
+16.6 +13.8 84 +17 +19 1015.5 1005.7
06 18.06 З 1 50 км 1/0
[Ci fib]
+25.4 +15.1 53 +28 +40 жарко 1015.0 1005.5 +16.2
09 18.06 С 2 50 км 3/1 1000 м
[Cu hum Ci fib]
+28.6 +12.1 36 +30 +45 жарко 1014.3 1004.9
12 18.06 СЗ 2 50 км 4/4 1000 м
[Cu hum]
+30.4 +12.2 33 +31 +39 жарко 1013.3 1003.9
15 18.06 СЗ 1 50 км 6/3 1000 м
[Cu hum Ci fib]
+31.1 +13.7 35 +33 +35 душно 1012.3 1003.0
18 18.06 Ю 1 20 км 9/5 600 м
[Sc Ac cast Ci]
+27.6 +17.3 53 +32 +32 очень
душно
1012.2 1002.8 +31.1
21 18.06 штиль 0 10 км {ливн. осадки} 8/1 600 м
[Sc diur, vesp Ac trans]
+22.4 +15.4 65 +26 +26 жарко 1012.9 1003.3
00 19.06 штиль 0 10 км {ливн. осадки} ясно +20.0 +15.2 74 +22 +22 комфорт 1012.9 1003.2
03 19.06 СВ 1 20 км 1/0
[Ci fib]
+20.4 +17.1 81 +25 +26 комфорт 1012.7 1003.1
06 19.06 С 3 50 км 1/1 1000 м
[Cu hum]
+25.8 +17.1 59 +30 +37 душно 1013.0 1003.5 +20.0 0.0
09 19.06 С 3 50 км 8/8 1000 м
[Cu med, cong]
+29.6 +16.7 46 +33 +36 душно 1012.9 1003.5
12 19.06 С 3 50 км 5/5 1000 м
[Cu hum]
+30.6 +18.5 48 +35 +41 очень
душно
1012.5 1003.2
15 19.06 С 3 50 км 3/3 600 м
[Cu hum]
+30.9 +19.3 50 +37 +38 очень
душно
1012.5 1003.2
18 19.06 С 2 20 км ясно +26.9 +17.3 56 +31 +31 душно 1012.9 1003.5 +31.6

 

Местоположение метеостанции Купянск (Харьковская область, Украина): широта 49.63 долгота 37.70 высота над уровнем моря 83 м.

В архиве по умолчанию представлена погода в Купянске за последнюю неделю. Архивные данные за месяц целиком и за предыдущие месяцы, начиная с января 2011 года, Вы можете получить, выбрав интересующий диапазон дат из раскрывающегося списка и нажав кнопку "Ввод!".


*Определитесь, кто Вы:
робот инопланетянин человек

Внимание! Время в таблицах - всемирное. Для получения местного времени необходимо прибавить поправку, которая равна 2 ч.

Смотрите также архив погоды в соседних городах и на ближайших метеорологических станциях:

Погода в Сватово (Луганская область, Украина) (41 км)
Погода в Новопскове (Луганская область, Украина) (46 км)
Погода в Троицком (Луганская область, Украина) (51 км)
Погода в Великом Бурлуке (Харьковская область, Украина) (54 км)
Погода в Изюме (Харьковская область, Украина) (58 км)
Погода в Валуйках (Белгородская область, Россия) (72 км)
Погода в Комсомольском (Донецкая область, Украина) (84 км)
Погода в Артемовске (Донецкая область, Украина) (116 км)
Погода в Харькове (Харьковская область, Украина) (119 км)
Погода в Новом Осколе (Белгородская область, Россия) (125 км)

Пояснения к столбцам:

Ветер - указаны скорость ветра в м/с - средняя за 10 мин, порывы в срок и между сроками (в фигурных скобках) и направление, откуда дует ветер: С - северный, СВ - северо-восточный, В - восточный, ЮВ - юго-восточный, Ю - южный, ЮЗ - юго-западный, З - западный, СЗ - северо-западный.
Видимость - горизонтальная дальность видимости в метрах или километрах. При видимости от 1 до 10 км при отсутствии осадков обычно наблюдается дымка, при ухудшении видимости до 1 км и менее - туман. В сухую погоду видимость может ухудшаться дымом, пылью или мглою.
Явления - указаны атмосферные явления, наблюдавшиеся в срок или в последний час перед сроком; фигурными скобками обозначены явления, наблюдавшиеся между сроками (за 1-3 часа до срока); квадратными скобками обозначены град или гололедные отложения с указанием их диаметра в мм.
Облачность - указаны через наклонную черту общая и нижняя облачность в баллах и высота нижней границы облаков в метрах; квадратными скобками обозначены формы облаков: Ci - перистые, Cs - перисто-слоистые, Cc - перисто-кучевые, Ac - высококучевые, As - высокослоистые, Sc - слоисто-кучевые, Ns - слоисто-дождевые, Cu - кучевые, Cb - кучево-дождевые. Подробнее классификацию облаков см. в Атласе облаков (PDF).
T - Температура воздуха - температура, измеренная на высоте 2 м над землей.
Td - Температура точки росы - температура, при понижении до которой содержащийся в воздухе водяной пар достигнет насыщения.
f - Относительная влажность воздуха - влажноcть воздуха, измеренная на высоте 2 м над землей.
Te - Эффективная температура - температура, которую ощущает одетый по сезону человек в тени. Характеристика душности погоды. При расчете учитывается влияние влажности воздуха и скорости ветра на теплоощущения человека.
Tes - Эффективная температура на солнце - температура, которую ощущает человек, с поправкой на солнечный нагрев. Характеристика знойности погоды. Зависит от высоты солнца над горизонтом, облачности и скорости ветра. Ночью, в пасмурную погоду, а также при ветре 12 м/с и более поправка равна нулю.
P - Атмосферное давление - приведенное к уровню моря атмосферное давление.
Po - Атмосферное давление - измеренное на уровне метеостанции атмосферное давление.
Tmin - Минимальная температура - минимум температуры воздуха на высоте 2 м над землей.
Tmax - Максимальная температура - максимум температуры воздуха на высоте 2 м над землей.
R - Количество осадков - Количество выпавших осадков за период времени, мм. При наведении курсора мыши на число - период времени, за который выпало указанное количество осадков.
R24 - Количество осадков - Количество выпавших осадков за 24 часа, мм.
S - Снежный покров - Высота снежного покрова, см. При наведении курсора мыши на число - состояние снежного покрова и степень покрытия местности в баллах.